sat.trackr.live / text

‹ back to catalog

STARLINK-30992

NORAD 58524 · 2023-191S

PAYLOAD ACTIVE UNKNOWN

§ Identity

Operator
Country
US
Launch date
2023-12-07
Launch site
AFETR
Launch vehicle
Mass (kg)
RCS (m²)

Purposes: comms

External: N2YO · Heavens-Above · Gunter

§ Orbital elements

Epoch: 2026-09-20T05:07:38.197920Z

Period
94.27 min
Inclination
43.0026°
Eccentricity
0.0000797
Mean motion
15.27576323 rev/d
Perigee alt
482.5 km
Apogee alt
483.6 km
Semi-major
6,861.2 km
B*
1.0966e-5
RAAN
84.6585°
Arg perigee
274.5751°
Mean anomaly
85.5010°
Rev number
15,522

§ Raw data

STARLINK-309921 58524U 23191S   26263.21363655  .00000040  00000+0  10966-4 0  99992 58524  43.0026  84.6585 0000797 274.5751  85.5010 15.27576323155226

JSON: /api/v1/satellites/58524 · /tle

For live sub-satellite position, see the globe view (requires WebGL).

§ Visibility from observer

Set your observer location to see the next 7 days of passes ≥ 10°. The values pass through the URL so the page stays shareable.

No JS? Fill the form by hand. The geolocation button needs JavaScript.